GW4659 Weather Reports


Display with metric or nautical units.
time (UTC)temp
F
wind
direction
speed
MPH
gust
MPH
rain 1hr
in
rain 24hr
in
rain mn
in
humidity
%
barometer
mb
20260510190000 78 115 0.0 2.0 0.00 0.00 0.00 68 1018.1
20260510185002 76 283 1.0 2.0 0.00 0.00 0.00 73 1018.3
20260510184001 77 287 1.0 2.0 0.00 0.00 0.00 70 1018.4
20260510182000 78 255 0.0 2.0 0.00 0.00 0.00 70 1018.3
20260510181000 77 281 0.0 1.0 0.00 0.00 0.00 72 1018.5
20260510174000 76 238 0.0 2.0 0.00 0.00 0.00 72 1018.9
20260510173000 75 119 0.0 2.0 0.00 0.00 0.00 74 1019.0
20260510172000 74 88 0.0 3.0 0.00 0.00 0.00 78 1019.1
20260510165000 71 360 0.0 1.0 0.00 0.00 0.00 80 1019.5
20260510164000 71 44 0.0 2.0 0.00 0.00 0.00 80 1019.3
20260510162959 70 134 0.0 2.0 0.00 0.00 0.00 82 1019.1
20260510162000 71 284 0.0 2.0 0.00 0.00 0.00 81 1019.1
20260510160002 70 77 0.0 2.0 0.00 0.00 0.00 82 1019.3
20260510155000 69 273 0.0 1.0 0.00 0.00 0.00 84 1019.2
20260510154004 69 274 0.0 2.0 0.00 0.00 0.00 85 1019.3
20260510153001 69 233 0.0 2.0 0.00 0.00 0.00 85 1019.2
20260510152001 68 233 0.0 1.0 0.00 0.00 0.00 87 1019.2
20260510150000 67 133 0.0 2.0 0.00 0.00 0.00 88 1019.2
20260510145000 67 240 0.0 2.0 0.00 0.00 0.00 89 1019.2
20260510144000 66 201 0.0 1.0 0.00 0.00 0.00 90 1019.4
20260510143000 66 202 0.0 3.0 0.00 0.00 0.00 91 1019.1
20260510141959 66 118 0.0 1.0 0.00 0.00 0.00 91 1019.3
20260510140959 65 119 0.0 1.0 0.00 0.00 0.00 92 1019.3
20260510140002 65 119 0.0 1.0 0.00 0.00 0.00 94 1019.2
20260510133959 64 118 0.0 1.0 0.00 0.00 0.00 95 1019.1
20260510133000 64 115 0.0 0.0 0.00 0.00 0.00 96 1019.1
20260510132000 64 115 0.0 1.0 0.00 0.00 0.00 96 1018.8
20260510131000 63 119 0.0 0.0 0.00 0.00 0.00 97 1018.7
20260510130002 63 119 0.0 0.0 0.00 0.00 0.00 97 1018.8
20260510125000 63 119 0.0 0.0 0.00 0.00 0.00 98 1018.8
20260510123959 63 119 0.0 0.0 0.00 0.00 0.00 98 1018.5
20260510122959 63 119 0.0 0.0 0.00 0.00 0.00 98 1018.5
20260510122001 63 119 0.0 0.0 0.00 0.00 0.00 98 1018.4
20260510115959 62 119 0.0 0.0 0.00 0.00 0.00 98 1018.0
20260510114959 62 119 0.0 0.0 0.00 0.00 0.00 98 1017.8
20260510113959 62 119 0.0 0.0 0.00 0.00 0.00 98 1017.6
20260510112959 62 119 0.0 1.0 0.00 0.00 0.00 98 1017.3
20260510111958 62 119 0.0 2.0 0.00 0.00 0.00 98 1017.1
20260510110959 62 120 0.0 1.0 0.00 0.00 0.00 98 1017.0
20260510110002 62 120 0.0 1.0 0.00 0.00 0.00 98 1016.9
20260510102959 62 275 0.0 1.0 0.00 0.00 0.00 98 1016.3
20260510102000 62 275 0.0 0.0 0.00 0.00 0.00 98 1016.3
20260510101000 62 275 0.0 1.0 0.00 0.00 0.00 98 1016.4
20260510094959 62 275 0.0 1.0 0.00 0.00 0.00 99 1015.9
20260510093959 61 311 0.0 0.0 0.00 0.00 0.00 99 1015.7
20260510092959 61 311 0.0 0.0 0.00 0.00 0.00 99 1015.6
20260510091959 61 311 0.0 0.0 0.00 0.00 0.00 99 1015.5
20260510091000 60 311 0.0 0.0 0.00 0.00 0.00 98 1015.4
20260510090002 60 311 0.0 0.0 0.00 0.00 0.00 98 1015.3
20260510084959 59 311 0.0 0.0 0.00 0.00 0.00 98 1015.4
20260510083958 59 311 0.0 0.0 0.00 0.00 0.00 98 1015.2
20260510083000 59 311 0.0 0.0 0.00 0.00 0.00 97 1015.1
20260510081959 60 311 0.0 0.0 0.00 0.00 0.00 97 1015.0
20260510080959 60 311 0.0 0.0 0.00 0.00 0.00 97 1015.0
20260510074959 61 311 0.0 0.0 0.00 0.00 0.00 98 1014.9
20260510073959 62 311 0.0 0.0 0.00 0.00 0.00 98 1014.9
20260510072959 62 311 0.0 0.0 0.00 0.00 0.00 98 1014.9
20260510072000 62 311 0.0 0.0 0.00 0.00 0.00 98 1015.1
20260510070959 61 311 0.0 0.0 0.00 0.00 0.00 98 1015.2
20260510070001 61 311 0.0 0.0 0.00 0.00 0.00 98 1015.2
20260510064959 61 311 0.0 0.0 0.00 0.00 0.00 98 1015.3
20260510063959 61 311 0.0 0.0 0.00 0.00 0.00 98 1015.4
20260510062959 61 311 0.0 0.0 0.00 0.00 0.00 98 1015.6
20260510061958 60 311 0.0 0.0 0.00 0.00 0.00 98 1015.5
20260510060959 60 311 0.0 0.0 0.00 0.00 0.00 98 1015.5
20260510060001 60 311 0.0 0.0 0.00 0.00 0.00 98 1015.4
20260510055001 60 311 0.0 0.0 0.00 0.00 0.00 97 1015.4
20260510054000 60 311 0.0 0.0 0.00 0.00 0.00 97 1015.5
20260510053000 60 311 0.0 0.0 0.00 0.00 0.00 97 1015.6
20260510052001 60 311 0.0 0.0 0.00 0.00 0.00 97 1015.6
20260510050959 61 311 0.0 0.0 0.00 0.00 0.00 97 1015.6
20260510045001 61 311 0.0 0.0 0.00 0.00 0.00 97 1015.6
20260510044001 61 311 0.0 0.0 0.00 0.00 0.00 96 1015.6
20260510043001 61 311 0.0 0.0 0.00 0.00 0.00 96 1015.6
20260510042001 62 311 0.0 0.0 0.00 0.00 0.00 96 1015.7
20260510041001 62 311 0.0 0.0 0.00 0.00 0.00 96 1015.7
20260510040002 62 311 0.0 0.0 0.00 0.00 0.00 95 1015.7
20260510035000 62 311 0.0 0.0 0.00 0.00 0.00 95 1015.8
20260510034001 63 311 0.0 0.0 0.00 0.00 0.00 95 1015.7
20260510031001 64 311 0.0 0.0 0.00 0.00 0.00 94 1015.7
20260510030003 64 311 0.0 0.0 0.00 0.00 0.00 93 1015.6
20260510025002 65 311 0.0 0.0 0.00 0.00 0.00 94 1015.7
20260510023002 65 311 0.0 0.0 0.00 0.00 0.00 93 1015.5
20260510022002 65 311 0.0 0.0 0.00 0.00 0.00 92 1015.3
20260510021002 66 311 0.0 0.0 0.00 0.00 0.00 92 1015.2
20260510015001 66 73 0.0 0.0 0.00 0.00 0.00 91 1014.8
20260510014000 66 73 0.0 1.0 0.00 0.00 0.00 91 1014.5
20260510013001 67 74 0.0 2.0 0.00 0.00 0.00 91 1014.5
20260510011001 67 122 0.0 1.0 0.00 0.00 0.00 90 1014.2
20260510010000 67 124 0.0 1.0 0.00 0.00 0.00 89 1013.9
20260510005000 67 95 0.0 2.0 0.00 0.00 0.00 89 1013.8
20260510004001 68 111 0.0 1.0 0.00 0.00 0.00 88 1013.8
20260510003000 68 111 0.0 1.0 0.00 0.00 0.00 87 1013.9
20260510002000 68 111 0.0 1.0 0.00 0.00 0.00 87 1013.9
20260510001000 68 114 0.0 1.0 0.00 0.00 0.00 86 1013.7
20260510000000 69 114 0.0 1.0 0.00 0.00 0.00 86 1013.4
20260509235000 69 114 0.0 1.0 0.00 0.00 0.00 84 1013.3
20260509233000 70 101 0.0 0.0 0.00 0.00 0.00 82 1013.1
20260509232000 70 101 0.0 1.0 0.00 0.00 0.00 81 1013.2
20260509231001 71 101 0.0 0.0 0.00 0.00 0.00 80 1013.1
20260509230004 71 101 0.0 1.0 0.00 0.00 0.00 79 1013.0
20260509225000 72 101 0.0 0.0 0.00 0.00 0.00 79 1012.7
20260509224000 72 101 0.0 0.0 0.00 0.00 0.00 78 1012.6
20260509223000 72 101 0.0 1.0 0.00 0.00 0.00 78 1012.5
20260509222000 72 100 0.0 1.0 0.00 0.00 0.00 77 1012.5
20260509221000 73 98 0.0 1.0 0.00 0.00 0.00 76 1012.5
20260509220002 73 98 0.0 1.0 0.00 0.00 0.00 76 1012.7
20260509215000 73 80 0.0 2.0 0.00 0.00 0.00 75 1012.6
20260509214001 74 282 0.0 2.0 0.00 0.00 0.00 73 1012.4
20260509213000 74 96 0.0 1.0 0.00 0.00 0.00 71 1012.5
20260509211001 74 23 0.0 3.0 0.00 0.00 0.00 70 1012.1
20260509210004 75 29 0.0 1.0 0.00 0.00 0.00 72 1012.4
20260509204000 75 290 0.0 2.0 0.00 0.00 0.00 67 1012.4
20260509201002 75 122 1.0 2.0 0.00 0.00 0.00 68 1012.3
20260509200000 75 117 1.0 3.0 0.00 0.00 0.00 69 1012.5
20260509194959 75 98 1.0 3.0 0.00 0.00 0.00 68 1012.5
20260509193959 76 229 0.0 1.0 0.00 0.00 0.00 71 1012.7
20260509193000 74 220 1.0 3.0 0.00 0.00 0.00 70 1012.8
20260509190959 74 249 0.0 3.0 0.00 0.00 0.00 71 1012.9